AAL2635 KPHX-KSAN

Flight info

Callsign AAL2635
Flight time 0h 51m
Altitude 32000
Route FYRBD1 MOHAK J2 HOGGZ LUCKI1
Aircraft A320/M-V/N

Departure

Time 2026-04-20 01:26
Airport Phoenix Sky Harbor International Airport (KPHX)

Arrival

Time 2026-04-20 02:18
Airport San Diego International Airport (KSAN)
Time Latitude Longitude Altitude Speed Heading
2026-04-20 00:53 33.43752 -111.99729 1136 ft 0 kts 90°
2026-04-20 01:10 33.43753 -111.99747 1135 ft 3 kts 90°
2026-04-20 01:10 33.43753 -111.99779 1134 ft 4 kts 90°
2026-04-20 01:11 33.43753 -111.99787 1134 ft 0 kts 90°
2026-04-20 01:14 33.43755 -111.99785 1134 ft 0 kts 69°
2026-04-20 01:14 33.43756 -111.99785 1134 ft 0 kts 54°
2026-04-20 01:14 33.43779 -111.99784 1133 ft 6 kts
2026-04-20 01:14 33.43823 -111.99782 1134 ft 7 kts
2026-04-20 01:15 33.43876 -111.99787 1134 ft 8 kts 342°
2026-04-20 01:15 33.43905 -111.99842 1132 ft 9 kts 270°
2026-04-20 01:15 33.43904 -111.99924 1131 ft 11 kts 269°
2026-04-20 01:15 33.43904 -112.00019 1131 ft 12 kts 270°
2026-04-20 01:16 33.43905 -112.00128 1131 ft 14 kts 270°
2026-04-20 01:16 33.43905 -112.00240 1131 ft 14 kts 270°
2026-04-20 01:16 33.43903 -112.00346 1131 ft 12 kts 255°
2026-04-20 01:16 33.43830 -112.00381 1133 ft 13 kts 179°
2026-04-20 01:17 33.43731 -112.00382 1133 ft 15 kts 180°
2026-04-20 01:17 33.43619 -112.00382 1132 ft 17 kts 180°
2026-04-20 01:17 33.43493 -112.00382 1132 ft 19 kts 180°
2026-04-20 01:17 33.43376 -112.00383 1134 ft 15 kts 180°
2026-04-20 01:18 33.43278 -112.00384 1133 ft 14 kts 179°
2026-04-20 01:18 33.43216 -112.00328 1136 ft 13 kts 96°
2026-04-20 01:18 33.43215 -112.00211 1134 ft 15 kts 90°
2026-04-20 01:18 33.43215 -112.00081 1132 ft 17 kts 90°
2026-04-20 01:19 33.43215 -111.99933 1135 ft 19 kts 91°
2026-04-20 01:19 33.43214 -111.99770 1133 ft 20 kts 90°
2026-04-20 01:19 33.43213 -111.99601 1133 ft 20 kts 91°
2026-04-20 01:19 33.43214 -111.99428 1133 ft 17 kts 90°
2026-04-20 01:20 33.43196 -111.99356 1135 ft 1 kts 138°
2026-04-20 01:20 33.43195 -111.99355 1135 ft 0 kts 139°
2026-04-20 01:24 33.43189 -111.99350 1133 ft 4 kts 148°
2026-04-20 01:24 33.43144 -111.99348 1137 ft 9 kts 185°
2026-04-20 01:25 33.43102 -111.99413 1135 ft 14 kts 272°
2026-04-20 01:25 33.43103 -111.99454 1135 ft 1 kts 270°
2026-04-20 01:25 33.43104 -111.99633 1135 ft 55 kts 270°
2026-04-20 01:25 33.43104 -112.00366 1133 ft 118 kts 270°
2026-04-20 01:26 33.43106 -112.01558 1130 ft 166 kts 270°
2026-04-20 01:26 33.43108 -112.02989 1540 ft 170 kts 268°
2026-04-20 01:26 33.43120 -112.04397 2048 ft 169 kts 266°
2026-04-20 01:26 33.43053 -112.05883 2307 ft 190 kts 262°
2026-04-20 01:27 33.42900 -112.07517 2569 ft 211 kts 253°
2026-04-20 01:27 33.42368 -112.09235 2897 ft 229 kts 244°
2026-04-20 01:27 33.41734 -112.11084 3329 ft 250 kts 245°
2026-04-20 01:27 33.41075 -112.13116 3871 ft 270 kts 246°
2026-04-20 01:28 33.40401 -112.15255 4737 ft 278 kts 247°
2026-04-20 01:28 33.39537 -112.17319 5663 ft 279 kts 226°
2026-04-20 01:28 33.37958 -112.18585 6543 ft 275 kts 193°
2026-04-20 01:28 33.36064 -112.18675 7438 ft 275 kts 169°
2026-04-20 01:29 33.34219 -112.18086 8330 ft 276 kts 160°
2026-04-20 01:29 33.32415 -112.17265 9143 ft 278 kts 158°
2026-04-20 01:29 33.30610 -112.16408 9927 ft 281 kts 159°
2026-04-20 01:29 33.28754 -112.15651 10639 ft 284 kts 170°
2026-04-20 01:30 33.26790 -112.15866 11292 ft 290 kts 201°
2026-04-20 01:30 33.25186 -112.17328 11973 ft 298 kts 232°
2026-04-20 01:30 33.24420 -112.19639 12646 ft 307 kts 261°
2026-04-20 01:30 33.24233 -112.22195 13338 ft 309 kts 257°
2026-04-20 01:31 33.23382 -112.24512 13950 ft 306 kts 229°
2026-04-20 01:31 33.21928 -112.26377 14525 ft 308 kts 226°
2026-04-20 01:31 33.20560 -112.28366 15146 ft 312 kts 230°
2026-04-20 01:31 33.19283 -112.30438 15745 ft 316 kts 232°
2026-04-20 01:32 33.18003 -112.32583 16349 ft 319 kts 232°
2026-04-20 01:32 33.16705 -112.34739 16963 ft 322 kts 231°
2026-04-20 01:32 33.15370 -112.36905 17551 ft 325 kts 231°
2026-04-20 01:32 33.14004 -112.39069 18164 ft 328 kts 230°
2026-04-20 01:33 33.12613 -112.41238 18691 ft 330 kts 230°
2026-04-20 01:33 33.11205 -112.43420 19244 ft 332 kts 230°
2026-04-20 01:33 33.09789 -112.45604 19784 ft 335 kts 230°
2026-04-20 01:33 33.08358 -112.47805 20371 ft 336 kts 229°
2026-04-20 01:34 33.06923 -112.50015 20912 ft 338 kts 229°
2026-04-20 01:34 33.05477 -112.52242 21416 ft 341 kts 230°
2026-04-20 01:34 33.04023 -112.54484 21941 ft 343 kts 230°
2026-04-20 01:34 33.02554 -112.56750 22418 ft 347 kts 230°
2026-04-20 01:35 33.01074 -112.59032 22911 ft 349 kts 229°
2026-04-20 01:35 32.99585 -112.61328 23403 ft 352 kts 230°
2026-04-20 01:35 32.98098 -112.63619 23798 ft 355 kts 230°
2026-04-20 01:35 32.96589 -112.65950 24235 ft 357 kts 231°
2026-04-20 01:36 32.95462 -112.68603 24626 ft 364 kts 251°
2026-04-20 01:36 32.94875 -112.71554 25033 ft 368 kts 256°
2026-04-20 01:36 32.94446 -112.74571 25454 ft 371 kts 259°
2026-04-20 01:36 32.94097 -112.77624 25872 ft 373 kts 260°
2026-04-20 01:37 32.93765 -112.80693 26295 ft 375 kts 260°
2026-04-20 01:37 32.93415 -112.83791 26705 ft 377 kts 259°
2026-04-20 01:37 32.93037 -112.86887 27117 ft 379 kts 259°
2026-04-20 01:37 32.92630 -112.89998 27529 ft 381 kts 258°
2026-04-20 01:38 32.92206 -112.93112 27934 ft 383 kts 258°
2026-04-20 01:38 32.91777 -112.96207 28358 ft 385 kts 258°
2026-04-20 01:38 32.91334 -112.99396 28778 ft 387 kts 258°
2026-04-20 01:38 32.90900 -113.02523 29179 ft 389 kts 258°
2026-04-20 01:39 32.90459 -113.05710 29590 ft 391 kts 258°
2026-04-20 01:39 32.90016 -113.08916 29975 ft 393 kts 258°
2026-04-20 01:39 32.89573 -113.12137 30313 ft 395 kts 258°
2026-04-20 01:39 32.89128 -113.15371 30641 ft 397 kts 258°
2026-04-20 01:40 32.88681 -113.18621 30975 ft 399 kts 258°
2026-04-20 01:40 32.88233 -113.21889 31307 ft 401 kts 258°
2026-04-20 01:40 32.87782 -113.25165 31634 ft 402 kts 258°
2026-04-20 01:40 32.87328 -113.28454 31789 ft 403 kts 258°
2026-04-20 01:41 32.86416 -113.35037 31819 ft 403 kts 258°
2026-04-20 01:41 32.85499 -113.41612 31818 ft 403 kts 258°
2026-04-20 01:42 32.84582 -113.48134 31821 ft 403 kts 258°
2026-04-20 01:42 32.83648 -113.54705 31824 ft 403 kts 258°
2026-04-20 01:43 32.82721 -113.61272 31822 ft 403 kts 258°
2026-04-20 01:43 32.81790 -113.67844 31827 ft 403 kts 258°
2026-04-20 01:44 32.80857 -113.74416 31829 ft 403 kts 258°
2026-04-20 01:44 32.79921 -113.80993 31843 ft 403 kts 258°
2026-04-20 01:45 32.78976 -113.87526 31844 ft 402 kts 258°
2026-04-20 01:45 32.78033 -113.94082 31851 ft 402 kts 258°
2026-04-20 01:46 32.77380 -114.00687 31854 ft 404 kts 265°
2026-04-20 01:46 32.77315 -114.07333 31856 ft 405 kts 269°
2026-04-20 01:47 32.77630 -114.14029 31858 ft 406 kts 272°
2026-04-20 01:47 32.77923 -114.18785 31856 ft 406 kts 271°
2026-04-20 01:48 32.78157 -114.23217 31854 ft 406 kts 271°
2026-04-20 01:48 32.78433 -114.29915 31853 ft 406 kts 270°
2026-04-20 01:49 32.78678 -114.36614 31860 ft 405 kts 270°
2026-04-20 01:49 32.79108 -114.39924 31862 ft 408 kts 284°
2026-04-20 01:49 32.79972 -114.43136 31865 ft 408 kts 285°
2026-04-20 01:50 32.81742 -114.49547 31862 ft 408 kts 286°
2026-04-20 01:50 32.83523 -114.55954 31858 ft 408 kts 285°
2026-04-20 01:51 32.85284 -114.62362 31854 ft 407 kts 285°
2026-04-20 01:51 32.87035 -114.68768 31850 ft 407 kts 285°
2026-04-20 01:52 32.87839 -114.75308 31849 ft 400 kts 264°
2026-04-20 01:52 32.87637 -114.81921 31672 ft 401 kts 266°
2026-04-20 01:53 32.87593 -114.85228 31359 ft 400 kts 267°
2026-04-20 01:53 32.87554 -114.88535 30987 ft 398 kts 267°
2026-04-20 01:53 32.87508 -114.91772 30627 ft 396 kts 266°
2026-04-20 01:53 32.87448 -114.95039 30272 ft 395 kts 266°
2026-04-20 01:54 32.87375 -114.98300 29907 ft 393 kts 266°
2026-04-20 01:54 32.87295 -115.01543 29504 ft 392 kts 266°
2026-04-20 01:54 32.87215 -115.04779 29085 ft 390 kts 266°
2026-04-20 01:54 32.87137 -115.08000 28678 ft 388 kts 266°
2026-04-20 01:55 32.87059 -115.11196 28276 ft 386 kts 266°
2026-04-20 01:55 32.86982 -115.14376 27877 ft 384 kts 266°
2026-04-20 01:55 32.86906 -115.17542 27485 ft 382 kts 266°
2026-04-20 01:55 32.86829 -115.20692 27099 ft 380 kts 266°
2026-04-20 01:56 32.86750 -115.23831 26718 ft 378 kts 266°
2026-04-20 01:56 32.86673 -115.26949 26339 ft 376 kts 266°
2026-04-20 01:56 32.86596 -115.30006 25973 ft 374 kts 266°
2026-04-20 01:56 32.86515 -115.33093 25599 ft 371 kts 265°
2026-04-20 01:57 32.86295 -115.36132 25236 ft 368 kts 262°
2026-04-20 01:57 32.85941 -115.39129 24879 ft 364 kts 259°
2026-04-20 01:57 32.85510 -115.42090 24523 ft 361 kts 258°
2026-04-20 01:57 32.85051 -115.45016 24174 ft 358 kts 258°
2026-04-20 01:58 32.84593 -115.47922 23821 ft 355 kts 258°
2026-04-20 01:58 32.84142 -115.50795 23487 ft 352 kts 258°
2026-04-20 01:58 32.83675 -115.53641 23104 ft 350 kts 258°
2026-04-20 01:58 32.83202 -115.56473 22697 ft 347 kts 258°
2026-04-20 01:59 32.82731 -115.59282 22300 ft 345 kts 258°
2026-04-20 01:59 32.82265 -115.62079 21909 ft 344 kts 258°
2026-04-20 01:59 32.81805 -115.64864 21570 ft 342 kts 258°
2026-04-20 01:59 32.81350 -115.67629 21188 ft 340 kts 258°
2026-04-20 02:00 32.80903 -115.70344 20815 ft 339 kts 258°
2026-04-20 02:00 32.80454 -115.73090 20443 ft 337 kts 258°
2026-04-20 02:00 32.80008 -115.75818 20077 ft 336 kts 258°
2026-04-20 02:00 32.79558 -115.78536 19740 ft 335 kts 258°
2026-04-20 02:01 32.79108 -115.81248 19379 ft 334 kts 258°
2026-04-20 02:01 32.78659 -115.83951 19024 ft 333 kts 258°
2026-04-20 02:01 32.78315 -115.86673 18673 ft 333 kts 262°
2026-04-20 02:01 32.78073 -115.89408 18348 ft 332 kts 263°
2026-04-20 02:02 32.77884 -115.92146 17962 ft 331 kts 264°
2026-04-20 02:02 32.77712 -115.94869 17549 ft 330 kts 264°
2026-04-20 02:02 32.77536 -115.97585 17171 ft 329 kts 263°
2026-04-20 02:02 32.77352 -116.00284 16794 ft 327 kts 263°
2026-04-20 02:03 32.77161 -116.02975 16438 ft 326 kts 263°
2026-04-20 02:03 32.76965 -116.05650 16070 ft 324 kts 263°
2026-04-20 02:03 32.76764 -116.08312 15708 ft 323 kts 263°
2026-04-20 02:03 32.76561 -116.10964 15343 ft 322 kts 262°
2026-04-20 02:04 32.76358 -116.13609 15013 ft 321 kts 263°
2026-04-20 02:04 32.76157 -116.16242 14656 ft 320 kts 262°
2026-04-20 02:04 32.75955 -116.18863 14303 ft 319 kts 263°
2026-04-20 02:04 32.75752 -116.21482 13954 ft 318 kts 263°
2026-04-20 02:05 32.75550 -116.24090 13586 ft 317 kts 263°
2026-04-20 02:05 32.75352 -116.26664 13210 ft 316 kts 263°
2026-04-20 02:05 32.75151 -116.29264 12820 ft 316 kts 263°
2026-04-20 02:05 32.74951 -116.31862 12442 ft 315 kts 263°
2026-04-20 02:06 32.74751 -116.34446 12068 ft 314 kts 263°
2026-04-20 02:06 32.74551 -116.37033 11698 ft 314 kts 263°
2026-04-20 02:06 32.74352 -116.39607 11351 ft 313 kts 262°
2026-04-20 02:06 32.74153 -116.42170 10989 ft 311 kts 262°
2026-04-20 02:07 32.73952 -116.44726 10629 ft 310 kts 262°
2026-04-20 02:07 32.73752 -116.47277 10272 ft 310 kts 262°
2026-04-20 02:07 32.73553 -116.49820 9922 ft 309 kts 263°
2026-04-20 02:07 32.73342 -116.52331 9553 ft 301 kts 262°
2026-04-20 02:08 32.73111 -116.54781 9170 ft 299 kts 261°
2026-04-20 02:08 32.72869 -116.57230 8795 ft 298 kts 261°
2026-04-20 02:08 32.72625 -116.59664 8412 ft 294 kts 261°
2026-04-20 02:08 32.72389 -116.62045 8040 ft 286 kts 261°
2026-04-20 02:09 32.72161 -116.64350 7676 ft 276 kts 260°
2026-04-20 02:09 32.71947 -116.66543 7316 ft 266 kts 261°
2026-04-20 02:09 32.71763 -116.68698 6961 ft 258 kts 262°
2026-04-20 02:09 32.71599 -116.70789 6598 ft 250 kts 261°
2026-04-20 02:10 32.71447 -116.72816 6238 ft 244 kts 262°
2026-04-20 02:10 32.71295 -116.74818 5868 ft 242 kts 262°
2026-04-20 02:10 32.71142 -116.76803 5496 ft 241 kts 262°
2026-04-20 02:10 32.70986 -116.78775 5369 ft 239 kts 262°
2026-04-20 02:11 32.70830 -116.80746 5604 ft 240 kts 262°
2026-04-20 02:11 32.70491 -116.82682 5559 ft 238 kts 247°
2026-04-20 02:11 32.69913 -116.84520 5490 ft 237 kts 247°
2026-04-20 02:11 32.69338 -116.86354 5400 ft 237 kts 247°
2026-04-20 02:12 32.68771 -116.88164 5346 ft 237 kts 247°
2026-04-20 02:12 32.68216 -116.89989 5182 ft 230 kts 248°
2026-04-20 02:12 32.67710 -116.91710 5048 ft 212 kts 248°
2026-04-20 02:12 32.67400 -116.93359 4916 ft 199 kts 264°
2026-04-20 02:13 32.67509 -116.94971 4601 ft 196 kts 281°
2026-04-20 02:13 32.67893 -116.96531 4191 ft 196 kts 284°
2026-04-20 02:13 32.68270 -116.98056 3896 ft 186 kts 283°
2026-04-20 02:13 32.68616 -116.99462 3751 ft 169 kts 283°
2026-04-20 02:14 32.68936 -117.00766 3493 ft 161 kts 284°
2026-04-20 02:14 32.69242 -117.02022 3172 ft 156 kts 284°
2026-04-20 02:14 32.69541 -117.03254 2832 ft 155 kts 284°
2026-04-20 02:14 32.69838 -117.04475 2575 ft 151 kts 284°
2026-04-20 02:15 32.70126 -117.05656 2366 ft 147 kts 285°
2026-04-20 02:15 32.70404 -117.06799 2178 ft 145 kts 285°
2026-04-20 02:15 32.70682 -117.07940 2006 ft 143 kts 285°
2026-04-20 02:15 32.70956 -117.09062 1811 ft 140 kts 284°
2026-04-20 02:16 32.71222 -117.10163 1580 ft 137 kts 284°
2026-04-20 02:16 32.71488 -117.11258 1337 ft 139 kts 284°
2026-04-20 02:16 32.71753 -117.12351 1108 ft 137 kts 285°
2026-04-20 02:16 32.72015 -117.13423 934 ft 134 kts 284°
2026-04-20 02:17 32.72272 -117.14494 695 ft 135 kts 283°
2026-04-20 02:17 32.72529 -117.15564 483 ft 134 kts 283°
2026-04-20 02:17 32.72796 -117.16629 316 ft 134 kts 283°
2026-04-20 02:17 32.73048 -117.17689 101 ft 133 kts 283°
2026-04-20 02:18 32.73289 -117.18690 19 ft 103 kts 287°
2026-04-20 02:18 32.73383 -117.19072 22 ft 45 kts 286°
2026-04-20 02:18 32.73443 -117.19324 21 ft 29 kts 283°
2026-04-20 02:18 32.73423 -117.19500 24 ft 16 kts 250°
2026-04-20 02:19 32.73415 -117.19624 23 ft 17 kts 287°
2026-04-20 02:19 32.73440 -117.19731 25 ft 10 kts 285°
2026-04-20 02:19 32.73460 -117.19816 24 ft 12 kts 285°
2026-04-20 02:19 32.73484 -117.19919 24 ft 15 kts 287°
2026-04-20 02:20 32.73517 -117.20047 22 ft 16 kts 286°
2026-04-20 02:20 32.73549 -117.20179 25 ft 10 kts 287°
2026-04-20 02:20 32.73508 -117.20239 23 ft 12 kts 193°
2026-04-20 02:20 32.73440 -117.20261 21 ft 9 kts 196°
2026-04-20 02:21 32.73368 -117.20276 21 ft 0 kts 170°
2026-04-20 02:21 32.73365 -117.20275 21 ft 1 kts 165°
2026-04-20 02:22 32.73349 -117.20269 21 ft 3 kts 164°
2026-04-20 02:22 32.73324 -117.20261 22 ft 4 kts 162°
2026-04-20 02:22 32.73299 -117.20234 21 ft 5 kts 113°
2026-04-20 02:22 32.73295 -117.20203 21 ft 4 kts 97°
2026-04-20 02:23 32.73295 -117.20172 21 ft 3 kts 90°
2026-04-20 02:23 32.73295 -117.20168 21 ft 0 kts 91°